Location: Fauquembergues
(50.6005°N, 2.0987°E)
Time: 04:45:34
(UTC+00:00)

Cosmos 1980 Rocket - Pass Details

Date: 14 July 2020
Orbit: 828 x 851 km, 71.0° (Epoch: 06 August)

Event Time Altitude Azimuth Distance (km) Brightness Sun altitude
Rises 01:38:37 0° 331° (NNW) 3,430 5.9 -14.4°
Reaches altitude 10° 01:41:08 10° 336° (NNW) 2,491 5.2 -14.2°
Maximum altitude 01:46:46 57° 55° (NE) 996 2.9 -13.9°
Drops below altitude 10° 01:52:22 10° 134° (SE) 2,469 4.5 -13.5°
Sets 01:54:51 0° 138° (SE) 3,398 5.1 -13.3°
